Tracking 30743 objects as of 22-Jun-2025
HD Live streaming from Space Station
objects crossing your sky now

STARLINK-31102

Track STARLINK-31102 now!
10-day predictions
STARLINK-31102 is classified as:


NORAD ID: 58715
Int'l Code: 2024-002L
Perigee: 482.1 km
Apogee: 483.1 km
Inclination: 53.2 °
Period: 94.1 minutes
Semi major axis: 6853 km
RCS: Unknown
Launch date: January 3, 2024
Source: United States (US)
Launch site: AIR FORCE WESTERN TEST RANGE (AFWTR)
Your satellite tracking list
Your tracking list is empty




NASA's NSSDC Master Catalog

Two Line Element Set (TLE):
1 58715U 24002L   25172.58334491  .00033631  00000-0  11455-2 0  9992
2 58715  53.1587   2.9428 0000674 256.3863 188.4524 15.30114663  5740
Source of the keplerian elements: AFSPC